EUTELSAT HOTBIRD 13B

Last updated on Thu Nov 21 2024 00:02:40 GMT+0000 (Coordinated Universal Time)

1 29270U 06032A 24325.30175111 .00000157 00000+0 00000+0 0 9997 2 29270 0.1746 84.6059 0004491 171.4325 305.4877 1.00272496 41553
UTC large
Height (km)
Speed (km/s)
/
Latitude / Longitude
Inclination (degrees)
Orbital Period (minutes)
Azimuth
Elevation
Range (km)
Doppler Factor

Next 0 passes for location: London (51.5072 / 0.1276)

Sorry there are no passes over London.